Port Huron, MI

12:14 PM EDT on August 24, 2019 (GMT -0400)
Saint Clair County International

Weather History for KPHN - July, 2019

Change the Weather History Date:

Thursday, July 18, 2019

  Actual Average (KMTC) Record (KMTC)
Temperature  
Mean Temperature 74 °F -  
Max Temperature 89 °F 84 °F 94 °F (1991)
Min Temperature 59 °F 62 °F 50 °F (1971)
Cooling Degree Days 9    
Growing Degree Days 24 (Base 50)    
Moisture  
Dew Point 64 °F    
Average Humidity 73    
Maximum Humidity 94    
Minimum Humidity 40    
Precipitation  
Precipitation 0.00 in - - ()
Sea Level Pressure  
Sea Level Pressure 29.90 in    
Wind  
Wind Speed 3 mph (SSW)    
Max Wind Speed 15 mph    
Max Gust Speed 20 mph    
Visibility 8 miles    
Events      
Averages and records for this station are not official NWS values.
T = Trace of Precipitation, MM = Missing Value Source: NWS Daily Summary

Daily Weather History Graph

Daily Weather History Graph

Search for Another Location

Airport or City:

Astronomy

Jul. 18, 2019 Rise Set
Actual Time 6:07 AM EDT 9:04 PM EDT
Civil Twilight 5:33 AM EDT 9:38 PM EDT
Nautical Twilight 4:50 AM EDT 10:21 PM EDT
Astronomical Twilight 4:00 AM EDT 11:11 PM EDT
Moon 10:28 PM EDT (7/18) 7:36 AM EDT (7/18)
Length of Visible Light 16h 04m
Length of Day
14h 57m
Full, 97% of the Moon is Illuminated
Jul 18
Full
Jul 24
Last Quarter
Jul 31
New
Aug 7
First Quarter
Aug 15
Full

Hourly Weather History & Observations

Time (EDT) Temp. Heat Index Dew Point Humidity Pressure Visibility Wind Dir Wind Speed Gust Speed Precip Events Conditions
12:15 AM 66.2 °F - 62.6 °F 88% 29.94 in 10.0 mi NW 3.5 mph - N/A   Clear
12:35 AM 64.4 °F - 60.8 °F 88% 29.95 in 10.0 mi NW 4.6 mph - N/A   Clear
12:40 AM 64.4 °F - 60.8 °F 88% 29.95 in 10.0 mi NW 3.5 mph - N/A   Clear
12:58 AM 64.4 °F - 60.8 °F 88% 29.95 in 10.0 mi Calm Calm - N/A   Clear
1:16 AM 64.4 °F - 60.8 °F 88% 29.95 in 10.0 mi Calm Calm - N/A   Clear
1:35 AM 62.6 °F - 59.0 °F 88% 29.95 in 10.0 mi Calm Calm - N/A   Clear
1:36 AM 62.6 °F - 59.0 °F 88% 29.95 in 7.0 mi Calm Calm - N/A   Clear
1:55 AM 62.6 °F - 59.0 °F 88% 29.95 in 2.5 mi Calm Calm - N/A   Clear
1:56 AM 62.6 °F - 59.0 °F 88% 29.95 in 2.0 mi Calm Calm - N/A   Clear
2:19 AM 60.8 °F - 59.0 °F 94% 29.95 in 2.5 mi Calm Calm - N/A   Clear
2:37 AM 60.8 °F - 57.2 °F 88% 29.95 in 4.0 mi Calm Calm - N/A   Clear
2:55 AM 62.6 °F - 59.0 °F 88% 29.95 in 5.0 mi Calm Calm - N/A   Clear
2:56 AM 60.8 °F - 59.0 °F 94% 29.95 in 5.0 mi Calm Calm - N/A   Clear
3:15 AM 60.8 °F - 57.2 °F 88% 29.95 in 2.5 mi Calm Calm - N/A   Clear
3:35 AM 60.8 °F - 59.0 °F 94% 29.94 in 1.0 mi Calm Calm - N/A   Mist
3:58 AM 59.0 °F - 57.2 °F 94% 29.93 in 1.0 mi Calm Calm - N/A   Mist
4:16 AM 59.0 °F - 57.2 °F 94% 29.93 in 0.8 mi Calm Calm - N/A   Mist
4:35 AM 59.0 °F - 57.2 °F 94% 29.93 in 0.8 mi Calm Calm - N/A   Mist
4:55 AM 59.0 °F - 57.2 °F 94% 29.93 in 1.5 mi Calm Calm - N/A   Mist
5:19 AM 59.0 °F - 57.2 °F 94% 29.93 in 1.2 mi Calm Calm - N/A   Mist
5:37 AM 59.0 °F - 57.2 °F 94% 29.94 in 1.8 mi Calm Calm - N/A   Mist
5:55 AM 59.0 °F - 55.4 °F 88% 29.93 in 2.0 mi Calm Calm - N/A   Clear
6:15 AM 59.0 °F - 57.2 °F 94% 29.94 in 7.0 mi Calm Calm - N/A   Clear
6:16 AM 59.0 °F - 57.2 °F 94% 29.94 in 10.0 mi Calm Calm - N/A   Clear
6:35 AM 59.0 °F - 57.2 °F 94% 29.95 in 2.0 mi Calm Calm - N/A   Clear
6:40 AM 59.0 °F - 57.2 °F 94% 29.95 in 2.5 mi Calm Calm - N/A   Clear
6:58 AM 60.8 °F - 57.2 °F 88% 29.95 in 4.0 mi Calm Calm - N/A   Clear
7:16 AM 60.8 °F - 59.0 °F 94% 29.95 in 4.0 mi Calm Calm - N/A   Clear
7:35 AM 64.4 °F - 60.8 °F 88% 29.95 in 10.0 mi Calm Calm - N/A   Clear
7:36 AM 64.4 °F - 60.8 °F 88% 29.95 in 10.0 mi Calm Calm - N/A   Clear
7:55 AM 66.2 °F - 62.6 °F 88% 29.94 in 10.0 mi Calm Calm - N/A   Clear
7:56 AM 66.2 °F - 62.6 °F 88% 29.94 in 10.0 mi Calm Calm - N/A   Clear
8:19 AM 68.0 °F - 66.2 °F 94% 29.95 in 10.0 mi Calm Calm - N/A   Clear
8:37 AM 69.8 °F - 66.2 °F 88% 29.95 in 10.0 mi Calm Calm - N/A   Clear
8:55 AM 71.6 °F - 68.0 °F 88% 29.94 in 10.0 mi Calm Calm - N/A   Clear
8:56 AM 71.6 °F - 68.0 °F 88% 29.94 in 10.0 mi Calm Calm - N/A   Clear
9:15 AM 73.4 °F - 66.2 °F 78% 29.95 in 10.0 mi Calm Calm - N/A   Clear
9:16 AM 73.4 °F - 66.2 °F 78% 29.95 in 10.0 mi Calm Calm - N/A   Clear
9:35 AM 77.0 °F - 64.4 °F 65% 29.94 in 10.0 mi South 4.6 mph - N/A   Clear
9:58 AM 78.8 °F - 64.4 °F 61% 29.94 in 10.0 mi South 5.8 mph - N/A   Clear
10:16 AM 78.8 °F - 64.4 °F 61% 29.94 in 10.0 mi South 4.6 mph - N/A   Clear
10:35 AM 80.6 °F 82.3 °F 64.4 °F 58% 29.95 in 10.0 mi Calm Calm - N/A   Clear
10:55 AM 82.4 °F 83.4 °F 62.6 °F 51% 29.94 in 10.0 mi SSW 3.5 mph - N/A   Clear
11:19 AM 82.4 °F 83.4 °F 62.6 °F 51% 29.94 in 10.0 mi South 4.6 mph - N/A   Clear
11:37 AM 84.2 °F 85.0 °F 62.6 °F 48% 29.93 in 10.0 mi SSW 6.9 mph - N/A   Clear
11:55 AM 84.2 °F 84.4 °F 60.8 °F 45% 29.94 in 10.0 mi South 9.2 mph - N/A   Clear
11:56 AM 84.2 °F 84.4 °F 60.8 °F 45% 29.94 in 10.0 mi SSW 8.1 mph - N/A   Clear
12:15 PM 84.2 °F 83.8 °F 59.0 °F 42% 29.93 in 10.0 mi SSW 6.9 mph - N/A   Clear
12:35 PM 86.0 °F 85.4 °F 59.0 °F 40% 29.93 in 10.0 mi SSW 9.2 mph - N/A   Clear
12:58 PM 87.8 °F 88.5 °F 62.6 °F 43% 29.92 in 10.0 mi SSW 9.2 mph - N/A   Clear
1:16 PM 86.0 °F 87.3 °F 64.4 °F 48% 29.92 in 10.0 mi South 9.2 mph - N/A   Clear
1:35 PM 87.8 °F 89.4 °F 64.4 °F 46% 29.92 in 10.0 mi South 11.5 mph - N/A   Clear
1:36 PM 87.8 °F 89.4 °F 64.4 °F 46% 29.92 in 10.0 mi South 11.5 mph - N/A   Clear
1:55 PM 87.8 °F 89.4 °F 64.4 °F 46% 29.91 in 10.0 mi SSW 6.9 mph - N/A   Clear
2:19 PM 87.8 °F 90.4 °F 66.2 °F 49% 29.91 in 10.0 mi SSW 9.2 mph - N/A   Clear
2:37 PM 86.0 °F 87.3 °F 64.4 °F 48% 29.90 in 10.0 mi South 6.9 mph - N/A   Clear
2:55 PM 87.8 °F 90.4 °F 66.2 °F 49% 29.89 in 10.0 mi SSW 5.8 mph - N/A   Clear
3:15 PM 87.8 °F 91.4 °F 68.0 °F 52% 29.88 in 10.0 mi SSW 9.2 mph - N/A   Clear
3:16 PM 87.8 °F 91.4 °F 68.0 °F 52% 29.88 in 10.0 mi South 9.2 mph - N/A   Clear
3:35 PM 87.8 °F 92.6 °F 69.8 °F 55% 29.86 in 10.0 mi South 9.2 mph - N/A   Scattered Clouds
3:40 PM 89.6 °F 94.7 °F 69.8 °F 52% 29.85 in 10.0 mi South 11.5 mph - N/A   Scattered Clouds
3:58 PM 87.8 °F 92.6 °F 69.8 °F 55% 29.83 in 10.0 mi SSW 10.4 mph - N/A   Clear
4:35 PM 84.2 °F 88.4 °F 69.8 °F 62% 29.78 in 10.0 mi South 15.0 mph - N/A   Clear
4:55 PM 84.2 °F 88.4 °F 69.8 °F 62% 29.79 in 10.0 mi South 6.9 mph 19.6 mph N/A   Clear
4:56 PM 84.2 °F 88.4 °F 69.8 °F 62% 29.79 in 10.0 mi South 6.9 mph 19.6 mph N/A   Clear
5:19 PM 86.0 °F 91.8 °F 71.6 °F 62% 29.80 in 10.0 mi South 5.8 mph 16.1 mph N/A   Clear
5:37 PM 86.0 °F 91.8 °F 71.6 °F 62% 29.80 in 10.0 mi South 4.6 mph - N/A   Clear
5:55 PM 86.0 °F 91.8 °F 71.6 °F 62% 29.80 in 10.0 mi South 6.9 mph - N/A   Clear
5:56 PM 86.0 °F 91.8 °F 71.6 °F 62% 29.79 in 10.0 mi SSW 5.8 mph - N/A   Clear
6:15 PM 86.0 °F 91.8 °F 71.6 °F 62% 29.80 in 10.0 mi SSW 8.1 mph - N/A   Scattered Clouds
6:16 PM 87.8 °F 93.8 °F 71.6 °F 58% 29.80 in 10.0 mi SSW 10.4 mph - N/A   Scattered Clouds
6:35 PM 86.0 °F 91.8 °F 71.6 °F 62% 29.80 in 10.0 mi South 10.4 mph 16.1 mph N/A   Scattered Clouds
6:58 PM 84.2 °F 89.6 °F 71.6 °F 66% 29.80 in 10.0 mi South 12.7 mph - N/A   Scattered Clouds
7:15 PM 84.2 °F 89.6 °F 71.6 °F 66% 29.80 in 10.0 mi SSW 11.5 mph 16.1 mph N/A   Clear
7:35 PM 84.2 °F 88.4 °F 69.8 °F 62% 29.81 in 10.0 mi South 9.2 mph - N/A   Clear
7:55 PM 84.2 °F 88.4 °F 69.8 °F 62% 29.81 in 10.0 mi South 11.5 mph - N/A   Clear
8:19 PM 82.4 °F 86.3 °F 69.8 °F 66% 29.81 in 10.0 mi South 9.2 mph - N/A   Clear
8:37 PM 80.6 °F 83.9 °F 69.8 °F 70% 29.81 in 10.0 mi South 6.9 mph - N/A   Clear
8:55 PM 80.6 °F 83.9 °F 69.8 °F 70% 29.82 in 10.0 mi SSW 8.1 mph - N/A   Clear
9:15 PM 78.8 °F - 69.8 °F 74% 29.83 in 10.0 mi SSW 4.6 mph - N/A   Clear
9:35 PM 78.8 °F - 69.8 °F 74% 29.83 in 10.0 mi SSW 5.8 mph - N/A   Clear
9:39 PM 78.8 °F - 69.8 °F 74% 29.83 in 10.0 mi SSW 5.8 mph - N/A   Clear
9:58 PM 78.8 °F - 69.8 °F 74% 29.84 in 10.0 mi South 4.6 mph - N/A   Clear
10:16 PM 77.0 °F - 68.0 °F 74% 29.84 in 10.0 mi SSW 5.8 mph - N/A   Clear
10:35 PM 77.0 °F - 69.8 °F 78% 29.85 in 10.0 mi SSW 4.6 mph - N/A   Clear
10:36 PM 77.0 °F - 69.8 °F 78% 29.85 in 10.0 mi SSW 4.6 mph - N/A   Clear
10:55 PM 77.0 °F - 68.0 °F 74% 29.85 in 10.0 mi SSW 4.6 mph - N/A   Clear
11:19 PM 75.2 °F - 69.8 °F 83% 29.85 in 10.0 mi SSW 3.5 mph - N/A   Scattered Clouds
11:37 PM 75.2 °F - 69.8 °F 83% 29.85 in 10.0 mi South 3.5 mph - N/A   Mostly Cloudy
11:55 PM 75.2 °F - 69.8 °F 83% 29.84 in 10.0 mi South 3.5 mph - N/A   Mostly Cloudy
11:56 PM 75.2 °F - 69.8 °F 83% 29.84 in 10.0 mi SSW 3.5 mph - N/A   Mostly Cloudy